FENGYUN 3D

Satellite information

Favourite Embed

Satellite Type and Status

PAYLOADIN ORBIT

Key statistics

Satellite FENGYUN 3D at a glance.

Uptime

2952

Days in orbit

Revolutions

≈ 14.2

Per day

Orbit

SSO

Sun Synchronous Orbit

Inclination

99.0

Latest

Satellite identification and parameters

Extended collection of information and parameters for FENGYUN 3D.

Object identification

Identified? True

Debris? False

Object name: FENGYUN 3D

International designator: 2017-072A

Object number (NORAD): 43010

Object ID (CCSDS): 43010

Country: PEOPLES REPUBLIC OF CHINA (PRC)

Current information (Y/N): Y

RCS size: LARGE

Orbital parameters

Period: 101.431 minutes

Inclination: 98.9893 deg

SMA: 7204.557 km

Apoapsis: 827.117 km

Periapsis: 825.728 km

RAAN: 313.9783 deg

Eccentricy: 0.00009643

Argument of periapsis: 178.5734 deg

Mean anomaly: 181.5444 deg

Mean motion: 14.19684418 rev/day

Mean motion (dot): 0.00000151 rev/day2

B* drag term: 0.000093328079 1/REarth

Two-line elements (TLE)

Creation date: Dec. 14, 2025, 3:07 a.m.

Reference frame: TEME

Reference center: EARTH

Epoch: Dec. 13, 2025, 3:42 p.m. UTC

TLE line 0: 0 FENGYUN 3D

TLE line 1: 1 43010U 17072A 25347.65448741 .00000151 00000-0 93328-4 0 9991

TLE line 2: 2 43010 98.9893 313.9783 0000964 178.5734 181.5444 14.19684418418662

Live tracking on map

Real-time ground track for satellite FENGYUN 3D.

In-orbit conjunctions

There are no conjunctions computed for FENGYUN 3D, at the moment. Check back to stay up to date, as we update our databases every day.

Go to all conjunctions

Associated space launch

Fengyun-3D (also known as FY-3D) is a polar orbiting meteorological satellite. It is tasked with ocean and ice monitoring, as well as studying atmospheric chemistry and space weather. The satellite is expected to operate for 5 years.

FENGYUN 3D was lifted into orbit during the mission ‘Long March 4C | Fengyun-3D’, on board a Long March 4C space rocket.

The launch took place on Nov. 14, 2017, 6:35 p.m. from Launch Complex 9.

For more information about the launch, click the button.

Launch to space Long March 4C | Fengyun-3D
Long March 4C | Fengyun-3D

Agency: N/A

Status: Launch Successful

Launch date: Nov. 14, 2017, 6:35 p.m. UTC

Rocket: Long March 4C

Launch pad: Launch Complex 9

Location: Taiyuan Satellite Launch Center, People's Republic of China

...

Latest news about this satellite

There are no fresh news available about this satellite. Check back as we update our databases every day.


Newsletter sign-up

Weekly statistics, charts and insights to help you stay on top of the space industry.